Location: Congrier
(47.8099°N, 1.1170°W)
Time: 10:03:50
(UTC+00:00)

BlueWalker 3 - Pass Details

Date: 28 January 2023
Orbit: 497 x 515 km, 53.2° (Epoch: 23 March)

Event Time Altitude Azimuth Distance (km) Brightness Sun altitude
Rises 18:44:33 0° 246° (WSW) 2,591 7.0 -17.8°
Reaches altitude 10° 18:46:43 10° 248° (WSW) 1,713 5.8 -18.2°
Maximum altitude 18:50:36 76° 335° (NNW) 528 2.0 -18.8°
Enters shadow 18:51:35 48° 48° (NE) 674 2.2 -19.0°
